Hourly Data Report for October 06, 2017

All times are specified in Local Standard Time (LST). Add 1 hour to adjust for Daylight Saving Time where and when it is observed.

WINNIPEG A CS
MANITOBA

49°55'00.000" N
97°14'58.000" W
238.70 m
502S001
71849
XWG

Download Data

Hourly Data (October 2017)
Hourly Data Report for October 6, 2017
Temp Definition
°C
Dew Point Temp Definition
°C
Rel Hum Definition
%
Wind Dir Definition
10's deg

Wind Spd Definition
km/h
Visibility Definition
km
Stn Press Definition
kPa
Hmdx Definition


Wind Chill Definition


Weather Definition


TIME
00:00 5.1 -0.5 67 19 15   98.86     LegendNANA
01:00 5.2 -0.8 65 20 21   98.83     LegendNANA
02:00 5.8 -0.3 65 20 23   98.80     LegendNANA
03:00 5.7 1.1 72 20 17   98.75     LegendNANA
04:00 4.9 1.1 76 20 18   98.68     LegendNANA
05:00 4.8 0.8 75 20 16   98.62     LegendNANA
06:00 2.7 0.3 84 18 15   98.60     LegendNANA
07:00 3.0 0.8 85 19 16   98.56     LegendNANA
08:00 5.4 1.7 77 19 17   98.50     LegendNANA
09:00 8.9 2.3 63 19 12   98.44     LegendNANA
10:00 11.8 3.3 56 19 16   98.35     LegendNANA
11:00 14.9 2.0 42 19 23   98.29     LegendNANA
12:00 16.0 2.6 40 20 26   98.18     LegendNANA
13:00 17.3 1.9 35 20 27   98.03     LegendNANA
14:00 18.0 0.4 30 20 28   97.89     LegendNANA
15:00 18.6 0.5 30 22 21   97.75     LegendNANA
16:00 18.5 1.4 32 21 24   97.64     LegendNANA
17:00 17.9 2.3 35 20 22   97.55     LegendNANA
18:00 16.2 3.7 43 19 20   97.51     LegendNANA
19:00 14.1 4.0 50 19 17   97.45     LegendNANA
20:00 12.2 4.1 58 17 21   97.37     LegendNANA
21:00 11.4 4.3 62 17 25   97.30     LegendNANA
22:00 10.6 4.5 66 18 26   97.21     LegendNANA
23:00 10.6 4.5 66 18 27   97.11     LegendNANA

Notes on Data Quality.

Legend

  • E = Estimated
  • M = Missing
  • NA = Not Available
  • ‡ = Partner data that is not subject to review by the National Climate Archives
Date modified: